When you browse on this site, cookies collect data to enhance your experience and personalize the content and advertising you see.
Visit our Privacy Policy to learn more. By continuing to use the site, you agree to this use of cookies and data.
  • In Schweiz
  • Länderverzeichnis
  • Für 7 Tage
  • Wassertemperatur
  • Satellitenkarten
  • Wetterkarte
  • Widgets
  • user-avatar
    Anmelden

    Stündliche Wetter Tovste

    Heute, 21 April, Sonntag

    Zeit Temperatur Niederschläge Wind Luftdruck Luftfeuchtigkeit
    00:00 +10°C° 0 mm 0 m/S 760 mmHg 48%
    01:00 +10°C° 0 mm 0 m/S 760 mmHg 49%
    02:00 +10°C° 0 mm 0 m/S 759 mmHg 49%
    03:00 +9°C° 0 mm 0 m/S 759 mmHg 50%
    04:00 +10°C° 0 mm 1 m/S 759 mmHg 51%
    05:00 +10°C° 0 mm 1 m/S 759 mmHg 51%
    06:00 +11°C° 0 mm 1 m/S 759 mmHg 49%
    07:00 +12°C° 0 mm 2 m/S 760 mmHg 47%
    08:00 +13°C° 0 mm 2 m/S 760 mmHg 45%
    09:00 +13°C° 0 mm 2 m/S 760 mmHg 41%
    10:00 +13°C° 0 mm 3 m/S 760 mmHg 36%
    11:00 +14°C° 0 mm 3 m/S 760 mmHg 32%
    12:00 +14°C° 0 mm 3 m/S 760 mmHg 32%
    13:00 +14°C° 0 mm 3 m/S 760 mmHg 33%
    14:00 +14°C° 0 mm 3 m/S 759 mmHg 33%
    15:00 +14°C° 0 mm 3 m/S 759 mmHg 34%
    16:00 +14°C° 0 mm 3 m/S 759 mmHg 36%
    17:00 +14°C° 0 mm 3 m/S 759 mmHg 37%
    18:00 +13°C° 0 mm 3 m/S 760 mmHg 40%
    19:00 +11°C° 0 mm 3 m/S 760 mmHg 44%
    20:00 +10°C° 0 mm 2 m/S 760 mmHg 47%
    21:00 +10°C° 0 mm 2 m/S 760 mmHg 48%
    22:00 +10°C° 0 mm 2 m/S 760 mmHg 48%
    23:00 +10°C° 0 mm 2 m/S 761 mmHg 49%

    Morgen, 22 April, Montag

    Zeit Temperatur Niederschläge Wind Luftdruck Luftfeuchtigkeit
    00:00 +9°C° 0 mm 2 m/S 761 mmHg 49%
    01:00 +9°C° 0 mm 2 m/S 761 mmHg 49%
    02:00 +9°C° 0 mm 2 m/S 761 mmHg 49%
    03:00 +9°C° 0 mm 2 m/S 761 mmHg 50%
    04:00 +9°C° 0 mm 3 m/S 761 mmHg 51%
    05:00 +9°C° 0 mm 3 m/S 761 mmHg 52%
    06:00 +10°C° 0 mm 3 m/S 762 mmHg 50%
    07:00 +11°C° 0 mm 3 m/S 762 mmHg 48%
    08:00 +12°C° 0 mm 4 m/S 762 mmHg 46%
    09:00 +13°C° 0 mm 4 m/S 762 mmHg 42%
    10:00 +14°C° 0 mm 4 m/S 762 mmHg 38%
    11:00 +15°C° 0 mm 4 m/S 762 mmHg 34%
    12:00 +15°C° 0 mm 4 m/S 762 mmHg 34%
    13:00 +15°C° 0 mm 4 m/S 762 mmHg 35%
    14:00 +15°C° 0 mm 4 m/S 762 mmHg 36%
    15:00 +16°C° 0 mm 3 m/S 762 mmHg 36%
    16:00 +16°C° 0 mm 3 m/S 762 mmHg 37%
    17:00 +14°C° 0 mm 3 m/S 762 mmHg 38%
    18:00 +14°C° 0 mm 2 m/S 762 mmHg 42%
    19:00 +13°C° 0 mm 2 m/S 762 mmHg 46%
    20:00 +12°C° 0 mm 2 m/S 763 mmHg 50%
    21:00 +10°C° 0 mm 2 m/S 763 mmHg 50%
    22:00 +10°C° 0 mm 2 m/S 763 mmHg 50%
    23:00 +10°C° 0 mm 2 m/S 763 mmHg 51%

    übermorgen, 23 April, Dienstag

    Zeit Temperatur Niederschläge Wind Luftdruck Luftfeuchtigkeit
    00:00 +10°C° 0 mm 2 m/S 763 mmHg 52%
    01:00 +10°C° 0 mm 2 m/S 763 mmHg 54%
    02:00 +9°C° 0 mm 2 m/S 763 mmHg 56%
    03:00 +9°C° 0 mm 2 m/S 764 mmHg 58%
    04:00 +9°C° 0 mm 2 m/S 764 mmHg 60%
    05:00 +9°C° 0 mm 2 m/S 764 mmHg 62%
    06:00 +10°C° 0 mm 2 m/S 764 mmHg 59%
    07:00 +13°C° 0 mm 2 m/S 764 mmHg 56%
    08:00 +14°C° 0 mm 2 m/S 764 mmHg 52%
    09:00 +14°C° 0 mm 3 m/S 764 mmHg 49%
    10:00 +14°C° 0 mm 3 m/S 764 mmHg 45%
    11:00 +16°C° 0 mm 3 m/S 764 mmHg 42%
    12:00 +16°C° 0 mm 3 m/S 764 mmHg 41%
    13:00 +16°C° 0 mm 3 m/S 764 mmHg 39%
    14:00 +17°C° 0 mm 3 m/S 764 mmHg 38%
    15:00 +17°C° 0 mm 2 m/S 764 mmHg 40%
    16:00 +16°C° 0 mm 2 m/S 764 mmHg 42%
    17:00 +16°C° 0 mm 2 m/S 764 mmHg 44%
    18:00 +15°C° 0 mm 2 m/S 764 mmHg 46%
    19:00 +15°C° 0 mm 2 m/S 764 mmHg 47%
    20:00 +14°C° 0 mm 1 m/S 764 mmHg 49%
    21:00 +13°C° 0 mm 1 m/S 764 mmHg 51%
    22:00 +13°C° 0 mm 2 m/S 764 mmHg 53%
    23:00 +12°C° 0 mm 2 m/S 764 mmHg 55%

    24 April, Mittwoch

    Zeit Temperatur Niederschläge Wind Luftdruck Luftfeuchtigkeit
    00:00 +11°C° 0 mm 1 m/S 764 mmHg 57%
    01:00 +11°C° 0 mm 1 m/S 765 mmHg 58%
    02:00 +10°C° 0 mm 1 m/S 765 mmHg 60%
    03:00 +10°C° 0 mm 1 m/S 765 mmHg 60%
    04:00 +10°C° 0 mm 1 m/S 765 mmHg 60%
    05:00 +9°C° 0 mm 0 m/S 765 mmHg 60%
    06:00 +11°C° 0 mm 1 m/S 765 mmHg 56%
    07:00 +13°C° 0 mm 1 m/S 765 mmHg 51%
    08:00 +15°C° 0 mm 1 m/S 765 mmHg 47%
    09:00 +16°C° 0 mm 2 m/S 765 mmHg 43%
    10:00 +17°C° 0 mm 2 m/S 765 mmHg 40%
    11:00 +18°C° 0 mm 2 m/S 765 mmHg 37%
    12:00 +18°C° 0 mm 2 m/S 764 mmHg 36%
    13:00 +18°C° 0 mm 2 m/S 764 mmHg 36%
    14:00 +19°C° 0 mm 1 m/S 764 mmHg 36%
    15:00 +19°C° 0 mm 1 m/S 764 mmHg 37%
    16:00 +19°C° 0 mm 1 m/S 763 mmHg 37%
    17:00 +19°C° 0 mm 1 m/S 763 mmHg 38%
    18:00 +18°C° 0 mm 1 m/S 763 mmHg 41%
    19:00 +15°C° 0 mm 1 m/S 763 mmHg 45%
    20:00 +14°C° 0 mm 1 m/S 764 mmHg 49%
    21:00 +13°C° 0 mm 1 m/S 764 mmHg 50%
    22:00 +13°C° 0 mm 1 m/S 764 mmHg 51%
    23:00 +11°C° 0 mm 0 m/S 764 mmHg 52%

    25 April, Donnerstag

    Zeit Temperatur Niederschläge Wind Luftdruck Luftfeuchtigkeit
    00:00 +12°C° 0 mm 1 m/S 764 mmHg 53%
    01:00 +12°C° 0 mm 1 m/S 764 mmHg 54%
    02:00 +11°C° 0 mm 1 m/S 764 mmHg 55%
    03:00 +11°C° 0 mm 1 m/S 764 mmHg 57%
    04:00 +10°C° 0 mm 0 m/S 764 mmHg 59%
    05:00 +9°C° 0 mm 0 m/S 764 mmHg 61%
    06:00 +11°C° 0 mm 0 m/S 764 mmHg 57%
    07:00 +14°C° 0 mm 1 m/S 764 mmHg 52%
    08:00 +16°C° 0 mm 1 m/S 764 mmHg 48%
    09:00 +18°C° 0 mm 1 m/S 764 mmHg 44%
    10:00 +18°C° 0 mm 2 m/S 764 mmHg 41%
    11:00 +20°C° 0 mm 2 m/S 763 mmHg 38%
    12:00 +20°C° 0 mm 2 m/S 763 mmHg 37%
    13:00 +20°C° 0 mm 2 m/S 763 mmHg 37%
    14:00 +21°C° 0 mm 3 m/S 762 mmHg 36%
    15:00 +21°C° 0 mm 2 m/S 762 mmHg 37%
    16:00 +21°C° 0 mm 2 m/S 762 mmHg 39%
    17:00 +21°C° 0 mm 2 m/S 761 mmHg 40%
    18:00 +19°C° 0 mm 2 m/S 761 mmHg 44%
    19:00 +17°C° 0 mm 2 m/S 761 mmHg 47%
    20:00 +16°C° 0 mm 1 m/S 761 mmHg 51%
    21:00 +15°C° 0 mm 1 m/S 761 mmHg 54%
    22:00 +15°C° 0 mm 2 m/S 761 mmHg 56%
    23:00 +14°C° 0 mm 2 m/S 761 mmHg 58%

    26 April, Freitag

    Zeit Temperatur Niederschläge Wind Luftdruck Luftfeuchtigkeit
    00:00 +14°C° 0 mm 2 m/S 761 mmHg 60%
    01:00 +13°C° 0 mm 2 m/S 760 mmHg 62%
    02:00 +13°C° 0 mm 2 m/S 760 mmHg 64%
    03:00 +12°C° 0 mm 2 m/S 760 mmHg 65%
    04:00 +12°C° 0 mm 2 m/S 760 mmHg 66%
    05:00 +11°C° 0 mm 1 m/S 760 mmHg 67%
    06:00 +13°C° 0 mm 2 m/S 760 mmHg 63%
    07:00 +15°C° 0 mm 2 m/S 760 mmHg 58%
    08:00 +17°C° 0 mm 3 m/S 760 mmHg 53%
    09:00 +18°C° 0 mm 4 m/S 759 mmHg 50%
    10:00 +19°C° 0 mm 4 m/S 759 mmHg 47%
    11:00 +21°C° 0 mm 5 m/S 759 mmHg 44%
    12:00 +21°C° 0 mm 5 m/S 758 mmHg 44%
    13:00 +22°C° 0 mm 5 m/S 758 mmHg 43%
    14:00 +22°C° 0 mm 6 m/S 757 mmHg 43%
    15:00 +22°C° 0 mm 5 m/S 757 mmHg 44%
    16:00 +22°C° 0 mm 5 m/S 756 mmHg 46%
    17:00 +21°C° 0 mm 4 m/S 756 mmHg 47%
    18:00 +20°C° 0 mm 4 m/S 756 mmHg 52%
    19:00 +18°C° 0 mm 4 m/S 756 mmHg 57%
    20:00 +17°C° 0 mm 3 m/S 756 mmHg 61%
    21:00 +16°C° 0 mm 3 m/S 756 mmHg 64%
    22:00 +14°C° 0 mm 3 m/S 755 mmHg 66%
    23:00 +14°C° 0 mm 4 m/S 755 mmHg 69%
    Mehr zeigen